This is the latest recevied weather packets stored in our database for station/object WP3OF-3. If no packets are shown the sender has not sent any weather packets the latest 10 day(s).
| Time | Temp. | Humidity | Pressure | Rain* | Wind** | Luminosity | Snow |
|---|---|---|---|---|---|---|---|
| 1778099720 | 27.78° C | 76% | 1018.8 hPa | 0 mm | - | - | - |
| 1778099416 | 27.78° C | 76% | 1018.7 hPa | 0 mm | - | - | - |
| 1778099114 | 27.78° C | 76% | 1018.7 hPa | 0 mm | - | - | - |
| 1778098810 | 27.78° C | 75% | 1018.7 hPa | 0 mm | - | - | - |
| 1778098508 | 27.78° C | 75% | 1018.7 hPa | 0 mm | - | - | - |
| 1778098204 | 27.78° C | 74% | 1018.8 hPa | 0 mm | - | - | - |
| 1778097900 | 27.78° C | 73% | 1018.8 hPa | 0 mm | - | - | - |
| 1778097591 | 27.78° C | 74% | 1018.9 hPa | 0 mm | - | - | - |
| 1778097288 | 28.33° C | 73% | 1018.9 hPa | 0 mm | - | - | - |
| 1778096984 | 27.78° C | 72% | 1018.9 hPa | 0 mm | - | - | - |
| 1778096682 | 28.33° C | 74% | 1018.9 hPa | 0 mm | - | - | - |
| 1778096379 | 28.33° C | 74% | 1018.9 hPa | 0 mm | - | - | - |
| 1778096076 | 28.33° C | 75% | 1018.9 hPa | 0 mm | - | - | - |
| 1778095772 | 28.33° C | 73% | 1019 hPa | 0 mm | - | - | - |
| 1778095469 | 28.33° C | 74% | 1019.1 hPa | 0 mm | - | - | - |
| 1778095166 | 28.33° C | 74% | 1019 hPa | 0 mm | - | - | - |
| 1778094862 | 28.33° C | 74% | 1018.9 hPa | 0 mm | - | - | - |
| 1778094560 | 28.89° C | 72% | 1019 hPa | 0 mm | - | - | - |
| 1778094256 | 29.44° C | 71% | 1018.9 hPa | 0 mm | - | - | - |
| 1778093953 | 29.44° C | 71% | 1019 hPa | 0 mm | - | - | - |
| 1778093650 | 29.44° C | 71% | 1019.2 hPa | 0 mm | - | - | - |
| 1778093347 | 28.89° C | 72% | 1019.1 hPa | 0 mm | - | - | - |
| 1778093044 | 29.44° C | 72% | 1019.2 hPa | 0 mm | - | - | - |
| 1778092741 | 30° C | 71% | 1019.1 hPa | 0 mm | - | - | - |
| 1778092436 | 30° C | 71% | 1019.2 hPa | 0 mm | - | - | - |
* Rain latest hour (hover to see other rain measurements)
** Current wind speed in m/s (hover to see current wind gust speed)